Torna al catalogo

FENGYUN 1C DEB

AttivoSSO
NORAD 31056·DEBRIS·🇨🇳 China

Lanciato May 10, 1999 da Taiyuan Satellite Launch Center

Loading…

Prossimi Passaggi (prossime 24 ore)

TLE

AggiornatoSource: Space-Track

Epoca: Sep 14, 2026, 10:26 UTC

1 31056U 99025BFA 26257.43522190  .00000358  00000-0  20817-3 0  9995
2 31056  98.6958 237.3838 0024473 273.8493 238.6543 14.14631044  7110

Traccia FENGYUN 1C DEB in tempo reale con AllMySat

Download on the App Store